| time (UTC) | temp C | wind direction | speed KPH | gust KPH | rain 1hr cm | rain 24hr cm | rain mn cm | humidity % | barometer mb |
| 20260902120533 | 20 | 126 | 24.1 | 41.8 | 0.00 | 0.00 | 0.00 | 51 | 1003.3 |
| 20260902120134 | 20 | 127 | 29.0 | 41.8 | 0.00 | 0.00 | 0.00 | 50 | 1003.1 |
| 20260902115532 | 19 | 155 | 20.9 | 29.0 | 0.00 | 0.00 | 0.00 | 51 | 1003.2 |
| 20260902115032 | 20 | 149 | 17.7 | 27.4 | 0.00 | 0.00 | 0.00 | 49 | 1003.3 |
| 20260902114532 | 20 | 133 | 17.7 | 37.0 | 0.00 | 0.00 | 0.00 | 49 | 1003.3 |
| 20260902114031 | 20 | 135 | 27.4 | 35.4 | 0.00 | 0.00 | 0.00 | 49 | 1003.3 |
| 20260902113531 | 20 | 147 | 19.3 | 41.8 | 0.00 | 0.00 | 0.00 | 48 | 1003.3 |
| 20260902113032 | 20 | 126 | 20.9 | 41.8 | 0.00 | 0.00 | 0.00 | 48 | 1003.4 |
| 20260902112530 | 20 | 120 | 27.4 | 37.0 | 0.00 | 0.00 | 0.00 | 48 | 1003.4 |
| 20260902112031 | 20 | 152 | 22.5 | 48.3 | 0.00 | 0.00 | 0.00 | 49 | 1003.5 |
| 20260902111529 | 20 | 144 | 22.5 | 48.3 | 0.00 | 0.00 | 0.00 | 48 | 1003.5 |
| 20260902111027 | 20 | 134 | 20.9 | 35.4 | 0.00 | 0.00 | 0.00 | 50 | 1003.6 |
| 20260902110526 | 19 | 144 | 17.7 | 43.5 | 0.00 | 0.00 | 0.00 | 51 | 1003.5 |
| 20260902110026 | 19 | 168 | 27.4 | 43.5 | 0.00 | 0.00 | 0.00 | 52 | 1003.6 |
| 20260902105524 | 18 | 130 | 17.7 | 35.4 | 0.00 | 0.00 | 0.00 | 52 | 1003.5 |
| 20260902105025 | 17 | 138 | 20.9 | 35.4 | 0.00 | 0.00 | 0.00 | 53 | 1003.6 |
| 20260902104524 | 17 | 124 | 9.7 | 24.1 | 0.00 | 0.00 | 0.00 | 53 | 1003.6 |
| 20260902104026 | 17 | 153 | 12.9 | 27.4 | 0.00 | 0.00 | 0.00 | 53 | 1003.5 |
| 20260902103523 | 17 | 128 | 19.3 | 27.4 | 0.00 | 0.00 | 0.00 | 53 | 1003.6 |
| 20260902103036 | 17 | 144 | 19.3 | 24.1 | 0.00 | 0.00 | 0.00 | 52 | 1003.7 |
| 20260902102524 | 17 | 172 | 17.7 | 25.7 | 0.00 | 0.00 | 0.00 | 53 | 1003.6 |
| 20260902102023 | 17 | 142 | 16.1 | 27.4 | 0.00 | 0.00 | 0.00 | 52 | 1003.6 |
| 20260902101538 | 17 | 149 | 17.7 | 29.0 | 0.00 | 0.00 | 0.00 | 52 | 1003.6 |
| 20260902101026 | 17 | 140 | 19.3 | 33.8 | 0.00 | 0.00 | 0.00 | 52 | 1003.6 |
| 20260902100522 | 17 | 164 | 19.3 | 35.4 | 0.00 | 0.00 | 0.00 | 53 | 1003.7 |
| 20260902100022 | 16 | 185 | 17.7 | 27.4 | 0.00 | 0.00 | 0.00 | 53 | 1003.7 |
| 20260902095521 | 15 | 153 | 14.5 | 25.7 | 0.00 | 0.00 | 0.00 | 52 | 1003.7 |
| 20260902095020 | 15 | 157 | 11.3 | 22.5 | 0.00 | 0.00 | 0.00 | 53 | 1003.7 |
| 20260902094520 | 16 | 157 | 14.5 | 27.4 | 0.00 | 0.00 | 0.00 | 53 | 1003.7 |
| 20260902094019 | 15 | 126 | 19.3 | 25.7 | 0.00 | 0.00 | 0.00 | 52 | 1003.7 |
| 20260902093519 | 15 | 155 | 17.7 | 24.1 | 0.00 | 0.00 | 0.00 | 53 | 1003.7 |
| 20260902093018 | 16 | 157 | 16.1 | 29.0 | 0.00 | 0.00 | 0.00 | 53 | 1003.8 |
| 20260902092517 | 16 | 159 | 19.3 | 30.6 | 0.00 | 0.00 | 0.00 | 53 | 1003.7 |
| 20260902092018 | 16 | 145 | 19.3 | 30.6 | 0.00 | 0.00 | 0.00 | 52 | 1003.8 |
| 20260902091516 | 15 | 143 | 19.3 | 25.7 | 0.00 | 0.00 | 0.00 | 52 | 1003.8 |
| 20260902091014 | 15 | 166 | 14.5 | 24.1 | 0.00 | 0.00 | 0.00 | 53 | 1003.8 |
| 20260902090513 | 16 | 146 | 17.7 | 25.7 | 0.00 | 0.00 | 0.00 | 53 | 1003.7 |
| 20260902090012 | 16 | 166 | 19.3 | 25.7 | 0.00 | 0.00 | 0.00 | 53 | 1003.8 |
| 20260902085511 | 17 | 136 | 16.1 | 25.7 | 0.00 | 0.00 | 0.00 | 53 | 1003.9 |
| 20260902085011 | 18 | 125 | 12.9 | 25.7 | 0.00 | 0.00 | 0.00 | 51 | 1003.8 |
| 20260902084510 | 19 | 154 | 16.1 | 24.1 | 0.00 | 0.00 | 0.00 | 49 | 1003.8 |
| 20260902084010 | 19 | 146 | 14.5 | 27.4 | 0.00 | 0.00 | 0.00 | 49 | 1003.8 |
| 20260902083509 | 18 | 137 | 22.5 | 27.4 | 0.00 | 0.00 | 0.00 | 52 | 1003.8 |
| 20260902083008 | 16 | 127 | 16.1 | 22.5 | 0.00 | 0.00 | 0.00 | 53 | 1003.8 |
| 20260902082508 | 17 | 128 | 17.7 | 29.0 | 0.00 | 0.00 | 0.00 | 53 | 1003.9 |
| 20260902082008 | 17 | 125 | 19.3 | 29.0 | 0.00 | 0.00 | 0.00 | 53 | 1003.9 |
| 20260902081508 | 18 | 127 | 17.7 | 30.6 | 0.00 | 0.00 | 0.00 | 53 | 1003.9 |
| 20260902081007 | 18 | 120 | 22.5 | 30.6 | 0.00 | 0.00 | 0.00 | 53 | 1003.9 |
| 20260902080515 | 17 | 112 | 20.9 | 29.0 | 0.00 | 0.00 | 0.00 | 53 | 1004.0 |
| 20260902080006 | 18 | 132 | 19.3 | 24.1 | 0.00 | 0.00 | 0.00 | 53 | 1004.0 |
| 20260902075505 | 18 | 132 | 17.7 | 25.7 | 0.00 | 0.00 | 0.00 | 52 | 1003.9 |
| 20260902075005 | 18 | 130 | 19.3 | 30.6 | 0.00 | 0.00 | 0.00 | 52 | 1003.9 |
| 20260902074505 | 18 | 117 | 22.5 | 30.6 | 0.00 | 0.00 | 0.00 | 52 | 1003.9 |
| 20260902074105 | 18 | 123 | 22.5 | 27.4 | 0.00 | 0.00 | 0.00 | 52 | 1003.9 |
| 20260902073504 | 18 | 128 | 17.7 | 22.5 | 0.00 | 0.00 | 0.00 | 52 | 1003.8 |
| 20260902073003 | 19 | 146 | 16.1 | 29.0 | 0.00 | 0.00 | 0.00 | 51 | 1003.9 |
| 20260902072502 | 19 | 132 | 22.5 | 29.0 | 0.00 | 0.00 | 0.00 | 50 | 1003.9 |
| 20260902072001 | 19 | 124 | 22.5 | 29.0 | 0.00 | 0.00 | 0.00 | 51 | 1003.8 |
| 20260902071502 | 19 | 124 | 19.3 | 29.0 | 0.00 | 0.00 | 0.00 | 51 | 1003.8 |
| 20260902071003 | 19 | 120 | 19.3 | 32.2 | 0.00 | 0.00 | 0.00 | 51 | 1003.8 |
| 20260902070600 | 19 | 142 | 22.5 | 32.2 | 0.00 | 0.00 | 0.00 | 51 | 1003.7 |
| 20260902065558 | 18 | 118 | 24.1 | 33.8 | 0.00 | 0.00 | 0.00 | 51 | 1003.8 |
| 20260902065058 | 18 | 138 | 22.5 | 32.2 | 0.00 | 0.00 | 0.00 | 52 | 1003.8 |
| 20260902064617 | 18 | 120 | 20.9 | 27.4 | 0.00 | 0.00 | 0.00 | 52 | 1003.7 |
| 20260902064056 | 18 | 116 | 22.5 | 30.6 | 0.00 | 0.00 | 0.00 | 52 | 1003.8 |
| 20260902063554 | 18 | 130 | 22.5 | 30.6 | 0.00 | 0.00 | 0.00 | 52 | 1003.8 |
| 20260902063056 | 18 | 128 | 17.7 | 25.7 | 0.00 | 0.00 | 0.00 | 52 | 1003.8 |
| 20260902062554 | 17 | 123 | 19.3 | 25.7 | 0.00 | 0.00 | 0.00 | 53 | 1003.9 |
| 20260902062051 | 16 | 135 | 16.1 | 22.5 | 0.00 | 0.00 | 0.00 | 53 | 1003.9 |
| 20260902061553 | 16 | 122 | 16.1 | 22.5 | 0.00 | 0.00 | 0.00 | 53 | 1003.9 |
| 20260902061049 | 16 | 130 | 14.5 | 20.9 | 0.00 | 0.00 | 0.00 | 53 | 1003.9 |
| 20260902060550 | 17 | 130 | 12.9 | 24.1 | 0.00 | 0.00 | 0.00 | 52 | 1003.9 |
| 20260902060051 | 18 | 121 | 16.1 | 24.1 | 0.00 | 0.00 | 0.00 | 51 | 1004.0 |
| 20260902055545 | 18 | 120 | 17.7 | 25.7 | 0.00 | 0.00 | 0.00 | 51 | 1004.0 |
| 20260902055043 | 18 | 118 | 19.3 | 27.4 | 0.00 | 0.00 | 0.00 | 51 | 1004.0 |
| 20260902054543 | 18 | 122 | 22.5 | 27.4 | 0.00 | 0.00 | 0.00 | 50 | 1004.0 |
| 20260902054041 | 18 | 119 | 17.7 | 25.7 | 0.00 | 0.00 | 0.00 | 49 | 1004.1 |
| 20260902053539 | 18 | 115 | 19.3 | 25.7 | 0.00 | 0.00 | 0.00 | 49 | 1004.1 |
| 20260902053038 | 18 | 120 | 19.3 | 24.1 | 0.00 | 0.00 | 0.00 | 49 | 1004.1 |
| 20260902052541 | 19 | 109 | 19.3 | 24.1 | 0.00 | 0.00 | 0.00 | 48 | 1004.1 |
| 20260902052034 | 19 | 122 | 14.5 | 24.1 | 0.00 | 0.00 | 0.00 | 49 | 1004.1 |
| 20260902051533 | 19 | 130 | 16.1 | 25.7 | 0.00 | 0.00 | 0.00 | 48 | 1004.1 |
| 20260902051032 | 19 | 109 | 16.1 | 27.4 | 0.00 | 0.00 | 0.00 | 49 | 1004.1 |
| 20260902050533 | 19 | 100 | 17.7 | 27.4 | 0.00 | 0.00 | 0.00 | 48 | 1004.1 |
| 20260902050029 | 20 | 115 | 17.7 | 25.7 | 0.00 | 0.00 | 0.00 | 48 | 1004.0 |
| 20260902045527 | 20 | 116 | 16.1 | 29.0 | 0.00 | 0.00 | 0.00 | 48 | 1004.0 |
| 20260902045026 | 20 | 121 | 20.9 | 29.0 | 0.00 | 0.00 | 0.00 | 47 | 1004.1 |
| 20260902044526 | 20 | 120 | 16.1 | 25.7 | 0.00 | 0.00 | 0.00 | 48 | 1004.1 |
| 20260902044026 | 20 | 103 | 17.7 | 27.4 | 0.00 | 0.00 | 0.00 | 47 | 1004.0 |
| 20260902043526 | 19 | 132 | 17.7 | 27.4 | 0.00 | 0.00 | 0.00 | 49 | 1004.1 |
| 20260902043025 | 19 | 129 | 16.1 | 20.9 | 0.00 | 0.00 | 0.00 | 50 | 1004.1 |
| 20260902042526 | 20 | 116 | 11.3 | 24.1 | 0.00 | 0.00 | 0.00 | 50 | 1004.1 |
| 20260902042026 | 19 | 109 | 16.1 | 24.1 | 0.00 | 0.00 | 0.00 | 51 | 1004.1 |
| 20260902041524 | 18 | 117 | 12.9 | 16.1 | 0.00 | 0.00 | 0.00 | 53 | 1004.0 |
| 20260902041026 | 18 | 164 | 8.0 | 16.1 | 0.00 | 0.00 | 0.00 | 53 | 1004.0 |
| 20260902040520 | 18 | 118 | 11.3 | 17.7 | 0.00 | 0.00 | 0.00 | 53 | 1004.1 |
| 20260902040020 | 18 | 120 | 14.5 | 17.7 | 0.00 | 0.00 | 0.00 | 52 | 1004.2 |
| 20260902035518 | 18 | 120 | 11.3 | 16.1 | 0.00 | 0.00 | 0.00 | 52 | 1004.1 |
| 20260902035017 | 18 | 125 | 11.3 | 16.1 | 0.00 | 0.00 | 0.00 | 52 | 1004.0 |
| 20260902034516 | 18 | 118 | 12.9 | 19.3 | 0.00 | 0.00 | 0.00 | 52 | 1004.0 |
| 20260902034014 | 18 | 128 | 12.9 | 19.3 | 0.00 | 0.00 | 0.00 | 52 | 1003.9 |
| 20260902033512 | 18 | 110 | 12.9 | 17.7 | 0.00 | 0.00 | 0.00 | 52 | 1003.9 |
| 20260902033011 | 18 | 124 | 11.3 | 16.1 | 0.00 | 0.00 | 0.00 | 52 | 1003.8 |
| 20260902032509 | 18 | 120 | 9.7 | 14.5 | 0.00 | 0.00 | 0.00 | 52 | 1003.8 |
| 20260902032007 | 18 | 157 | 8.0 | 11.3 | 0.00 | 0.00 | 0.00 | 52 | 1003.7 |
| 20260902031506 | 18 | 147 | 8.0 | 12.9 | 0.00 | 0.00 | 0.00 | 52 | 1003.6 |
| 20260902031005 | 18 | 129 | 8.0 | 14.5 | 0.00 | 0.00 | 0.00 | 52 | 1003.5 |
| 20260902030503 | 18 | 118 | 9.7 | 14.5 | 0.00 | 0.00 | 0.00 | 51 | 1003.5 |
| 20260902030002 | 18 | 140 | 8.0 | 12.9 | 0.00 | 0.00 | 0.00 | 51 | 1003.4 |
| 20260902025502 | 18 | 134 | 8.0 | 11.3 | 0.00 | 0.00 | 0.00 | 51 | 1003.3 |
| 20260902025102 | 18 | 161 | 8.0 | 9.7 | 0.00 | 0.00 | 0.00 | 52 | 1003.3 |
| 20260902024609 | 20 | 172 | 6.4 | 12.9 | 0.00 | 0.00 | 0.00 | 52 | 1003.2 |
| 20260902024059 | 20 | 151 | 6.4 | 14.5 | 0.00 | 0.00 | 0.00 | 52 | 1003.0 |
| 20260902023555 | 20 | 145 | 8.0 | 14.5 | 0.00 | 0.00 | 0.00 | 52 | 1003.1 |
| 20260902023101 | 21 | 146 | 8.0 | 12.9 | 0.00 | 0.00 | 0.00 | 52 | 1003.0 |
| 20260902022553 | 21 | 157 | 9.7 | 16.1 | 0.00 | 0.00 | 0.00 | 51 | 1003.0 |
| 20260902022055 | 21 | 136 | 12.9 | 19.3 | 0.00 | 0.00 | 0.00 | 50 | 1003.0 |
| 20260902021554 | 21 | 147 | 12.9 | 19.3 | 0.00 | 0.00 | 0.00 | 50 | 1003.0 |
| 20260902021048 | 22 | 136 | 12.9 | 17.7 | 0.00 | 0.00 | 0.00 | 49 | 1003.1 |
| 20260902020547 | 22 | 172 | 14.5 | 17.7 | 0.00 | 0.00 | 0.00 | 49 | 1003.1 |
| 20260902020045 | 23 | 145 | 16.1 | 25.7 | 0.00 | 0.00 | 0.00 | 48 | 1003.1 |
| 20260902015543 | 23 | 146 | 17.7 | 27.4 | 0.00 | 0.00 | 0.00 | 47 | 1003.1 |
| 20260902015044 | 23 | 143 | 20.9 | 27.4 | 0.00 | 0.00 | 0.00 | 47 | 1003.2 |
| 20260902014543 | 23 | 163 | 17.7 | 25.7 | 0.00 | 0.00 | 0.00 | 47 | 1003.2 |
| 20260902014041 | 23 | 148 | 16.1 | 27.4 | 0.00 | 0.00 | 0.00 | 46 | 1003.3 |
| 20260902013537 | 23 | 149 | 19.3 | 27.4 | 0.00 | 0.00 | 0.00 | 46 | 1003.3 |
| 20260902013036 | 23 | 153 | 17.7 | 27.4 | 0.00 | 0.00 | 0.00 | 46 | 1003.4 |
| 20260902012535 | 24 | 138 | 16.1 | 27.4 | 0.00 | 0.00 | 0.00 | 46 | 1003.4 |
| 20260902012033 | 25 | 134 | 20.9 | 27.4 | 0.00 | 0.00 | 0.00 | 44 | 1003.5 |
| 20260902011532 | 25 | 153 | 17.7 | 29.0 | 0.00 | 0.00 | 0.00 | 42 | 1003.5 |
| 20260902011030 | 25 | 170 | 17.7 | 30.6 | 0.00 | 0.00 | 0.00 | 42 | 1003.6 |
| 20260902010528 | 24 | 177 | 19.3 | 30.6 | 0.00 | 0.00 | 0.00 | 42 | 1003.6 |
| 20260902010027 | 25 | 172 | 22.5 | 32.2 | 0.00 | 0.00 | 0.00 | 41 | 1003.6 |
| 20260902005526 | 25 | 147 | 20.9 | 37.0 | 0.00 | 0.00 | 0.00 | 41 | 1003.6 |
| 20260902005026 | 25 | 180 | 20.9 | 45.1 | 0.00 | 0.00 | 0.00 | 41 | 1003.7 |
| 20260902004526 | 25 | 159 | 17.7 | 45.1 | 0.00 | 0.00 | 0.00 | 40 | 1003.7 |
| 20260902004021 | 25 | 149 | 30.6 | 40.2 | 0.00 | 0.00 | 0.00 | 40 | 1003.7 |
| 20260902003518 | 25 | 150 | 20.9 | 29.0 | 0.00 | 0.00 | 0.00 | 43 | 1003.7 |
| 20260902003024 | 25 | 139 | 19.3 | 35.4 | 0.00 | 0.00 | 0.00 | 43 | 1003.7 |
| 20260902002516 | 26 | 152 | 22.5 | 35.4 | 0.00 | 0.00 | 0.00 | 41 | 1003.8 |
| 20260902002015 | 26 | 165 | 22.5 | 37.0 | 0.00 | 0.00 | 0.00 | 41 | 1004.0 |
| 20260902001515 | 26 | 149 | 22.5 | 38.6 | 0.00 | 0.00 | 0.00 | 41 | 1003.9 |
| 20260902001012 | 26 | 153 | 24.1 | 41.8 | 0.00 | 0.00 | 0.00 | 41 | 1004.0 |
| 20260902000511 | 26 | 199 | 24.1 | 41.8 | 0.00 | 0.00 | 0.00 | 41 | 1004.1 |
| 20260902000010 | 26 | 164 | 27.4 | 38.6 | 0.00 | 0.00 | 0.00 | 40 | 1004.0 |
| 20260901235507 | 26 | 155 | 22.5 | 35.4 | 0.00 | 0.00 | 0.00 | 40 | 1004.0 |
| 20260901235006 | 25 | 170 | 25.7 | 35.4 | 0.00 | 0.00 | 0.00 | 42 | 1004.1 |
| 20260901234505 | 26 | 158 | 24.1 | 40.2 | 0.00 | 0.00 | 0.00 | 40 | 1004.1 |
| 20260901234004 | 26 | 164 | 27.4 | 40.2 | 0.00 | 0.00 | 0.00 | 39 | 1004.3 |
| 20260901233502 | 26 | 184 | 25.7 | 45.1 | 0.00 | 0.00 | 0.00 | 40 | 1004.2 |
| 20260901233100 | 26 | 183 | 24.1 | 41.8 | 0.00 | 0.00 | 0.00 | 39 | 1004.4 |
| 20260901232559 | 26 | 164 | 32.2 | 51.5 | 0.00 | 0.00 | 0.00 | 38 | 1004.3 |
| 20260901232057 | 26 | 156 | 32.2 | 51.5 | 0.00 | 0.00 | 0.00 | 38 | 1004.4 |
| 20260901231556 | 26 | 142 | 27.4 | 45.1 | 0.00 | 0.00 | 0.00 | 40 | 1004.5 |
| 20260901231054 | 25 | 125 | 32.2 | 45.1 | 0.00 | 0.00 | 0.00 | 40 | 1004.5 |
| 20260901230553 | 25 | 165 | 19.3 | 38.6 | 0.00 | 0.00 | 0.00 | 41 | 1004.6 |
| 20260901230052 | 26 | 141 | 29.0 | 40.2 | 0.00 | 0.00 | 0.00 | 39 | 1004.7 |
| 20260901225549 | 26 | 165 | 22.5 | 40.2 | 0.00 | 0.03 | 0.00 | 39 | 1004.7 |
| 20260901225048 | 26 | 165 | 22.5 | 41.8 | 0.00 | 0.03 | 0.00 | 41 | 1004.8 |
| 20260901224547 | 26 | 147 | 24.1 | 48.3 | 0.00 | 0.03 | 0.00 | 41 | 1004.9 |
| 20260901224047 | 26 | 174 | 30.6 | 48.3 | 0.00 | 0.03 | 0.00 | 41 | 1005.0 |
| 20260901223544 | 26 | 156 | 29.0 | 43.5 | 0.00 | 0.03 | 0.00 | 41 | 1004.8 |
| 20260901223047 | 25 | 163 | 30.6 | 40.2 | 0.00 | 0.03 | 0.00 | 42 | 1004.9 |
| 20260901222540 | 25 | 173 | 24.1 | 41.8 | 0.00 | 0.03 | 0.00 | 42 | 1005.1 |
| 20260901222039 | 25 | 176 | 27.4 | 41.8 | 0.00 | 0.03 | 0.00 | 42 | 1005.1 |
| 20260901221538 | 25 | 165 | 29.0 | 41.8 | 0.00 | 0.03 | 0.00 | 41 | 1005.2 |
| 20260901221038 | 26 | 160 | 29.0 | 46.7 | 0.00 | 0.03 | 0.00 | 39 | 1005.4 |
| 20260901220536 | 26 | 180 | 32.2 | 46.7 | 0.00 | 0.03 | 0.00 | 38 | 1005.4 |
| 20260901220037 | 26 | 154 | 30.6 | 49.9 | 0.00 | 0.03 | 0.00 | 39 | 1005.5 |
| 20260901215532 | 26 | 183 | 30.6 | 51.5 | 0.00 | 0.03 | 0.00 | 39 | 1005.7 |
| 20260901215030 | 27 | 182 | 37.0 | 62.8 | 0.00 | 0.03 | 0.00 | 38 | 1005.7 |
| 20260901214533 | 27 | 163 | 27.4 | 62.8 | 0.00 | 0.03 | 0.00 | 39 | 1005.8 |
| 20260901214028 | 26 | 134 | 30.6 | 56.3 | 0.00 | 0.03 | 0.00 | 37 | 1005.7 |
| 20260901213526 | 26 | 155 | 27.4 | 51.5 | 0.00 | 0.03 | 0.00 | 39 | 1006.0 |
| 20260901213030 | 26 | 157 | 37.0 | 51.5 | 0.00 | 0.03 | 0.00 | 37 | 1006.0 |
| 20260901212522 | 25 | 160 | 29.0 | 46.7 | 0.00 | 0.03 | 0.00 | 42 | 1006.2 |
| 20260901212021 | 25 | 178 | 29.0 | 40.2 | 0.00 | 0.03 | 0.00 | 40 | 1006.2 |
| 20260901211520 | 26 | 169 | 30.6 | 51.5 | 0.00 | 0.03 | 0.00 | 40 | 1006.4 |
| 20260901211018 | 26 | 160 | 32.2 | 51.5 | 0.00 | 0.03 | 0.00 | 41 | 1006.5 |
| 20260901210517 | 26 | 151 | 33.8 | 45.1 | 0.00 | 0.03 | 0.00 | 43 | 1006.6 |
| 20260901210016 | 25 | 190 | 24.1 | 35.4 | 0.00 | 0.03 | 0.00 | 45 | 1006.6 |
| 20260901205514 | 25 | 165 | 27.4 | 43.5 | 0.00 | 0.03 | 0.00 | 46 | 1006.8 |
| 20260901205013 | 25 | 182 | 30.6 | 48.3 | 0.00 | 0.03 | 0.00 | 44 | 1007.0 |
| 20260901204513 | 25 | 169 | 33.8 | 48.3 | 0.00 | 0.03 | 0.00 | 43 | 1006.9 |
| 20260901204011 | 26 | 163 | 30.6 | 46.7 | 0.00 | 0.03 | 0.00 | 46 | 1006.9 |
| 20260901203509 | 25 | 181 | 27.4 | 49.9 | 0.00 | 0.03 | 0.00 | 45 | 1007.1 |
| 20260901203009 | 25 | 132 | 27.4 | 48.3 | 0.00 | 0.03 | 0.00 | 47 | 1007.2 |
| 20260901202506 | 25 | 163 | 33.8 | 54.7 | 0.00 | 0.03 | 0.00 | 46 | 1007.2 |
| 20260901202004 | 25 | 138 | 33.8 | 53.1 | 0.00 | 0.03 | 0.00 | 46 | 1007.2 |
| 20260901201503 | 25 | 170 | 38.6 | 48.3 | 0.00 | 0.03 | 0.00 | 46 | 1007.4 |
| 20260901201002 | 25 | 142 | 29.0 | 37.0 | 0.00 | 0.03 | 0.00 | 47 | 1007.3 |
| 20260901200600 | 24 | 149 | 27.4 | 38.6 | 0.00 | 0.03 | 0.00 | 47 | 1007.5 |
| 20260901200059 | 24 | 163 | 22.5 | 46.7 | 0.00 | 0.03 | 0.00 | 47 | 1007.6 |
| 20260901195558 | 24 | 167 | 27.4 | 40.2 | 0.00 | 0.03 | 0.00 | 47 | 1007.6 |
| 20260901195057 | 25 | 159 | 24.1 | 40.2 | 0.00 | 0.03 | 0.00 | 47 | 1007.5 |
| 20260901194559 | 25 | 145 | 30.6 | 41.8 | 0.00 | 0.03 | 0.00 | 46 | 1007.7 |
| 20260901194053 | 24 | 168 | 30.6 | 41.8 | 0.00 | 0.03 | 0.00 | 47 | 1007.6 |
| 20260901193552 | 24 | 175 | 27.4 | 38.6 | 0.00 | 0.03 | 0.00 | 46 | 1007.9 |
| 20260901193054 | 25 | 160 | 29.0 | 41.8 | 0.00 | 0.03 | 0.00 | 46 | 1007.9 |
| 20260901192548 | 24 | 194 | 25.7 | 41.8 | 0.00 | 0.03 | 0.00 | 48 | 1008.0 |
| 20260901192048 | 24 | 161 | 30.6 | 41.8 | 0.00 | 0.03 | 0.00 | 48 | 1008.0 |
| 20260901191546 | 24 | 130 | 24.1 | 40.2 | 0.00 | 0.03 | 0.00 | 48 | 1008.1 |
| 20260901191044 | 23 | 170 | 29.0 | 40.2 | 0.00 | 0.03 | 0.00 | 49 | 1008.2 |
| 20260901190543 | 23 | 159 | 20.9 | 38.6 | 0.00 | 0.03 | 0.00 | 50 | 1008.1 |
| 20260901190045 | 23 | 162 | 29.0 | 38.6 | 0.00 | 0.03 | 0.00 | 50 | 1008.2 |
| 20260901185541 | 23 | 153 | 27.4 | 38.6 | 0.00 | 0.03 | 0.00 | 50 | 1008.2 |
| 20260901185039 | 23 | 141 | 27.4 | 38.6 | 0.00 | 0.03 | 0.00 | 50 | 1008.2 |
| 20260901184545 | 23 | 122 | 29.0 | 45.1 | 0.00 | 0.03 | 0.00 | 50 | 1008.2 |
| 20260901184036 | 23 | 145 | 32.2 | 51.5 | 0.00 | 0.03 | 0.00 | 50 | 1008.3 |
| 20260901183534 | 23 | 135 | 27.4 | 51.5 | 0.00 | 0.03 | 0.00 | 50 | 1008.2 |
| 20260901183035 | 23 | 124 | 29.0 | 40.2 | 0.00 | 0.03 | 0.00 | 50 | 1008.2 |
| 20260901182531 | 23 | 134 | 25.7 | 38.6 | 0.00 | 0.03 | 0.00 | 50 | 1008.2 |
| 20260901182031 | 23 | 126 | 24.1 | 38.6 | 0.00 | 0.03 | 0.00 | 50 | 1008.3 |
| 20260901181533 | 23 | 119 | 30.6 | 38.6 | 0.00 | 0.03 | 0.00 | 50 | 1008.3 |
| 20260901181026 | 22 | 162 | 22.5 | 38.6 | 0.00 | 0.03 | 0.00 | 50 | 1008.6 |
| 20260901180525 | 22 | 126 | 30.6 | 41.8 | 0.00 | 0.03 | 0.00 | 50 | 1008.6 |
| 20260901180024 | 22 | 133 | 27.4 | 41.8 | 0.00 | 0.03 | 0.00 | 50 | 1008.7 |
| 20260901175522 | 22 | 138 | 29.0 | 40.2 | 0.00 | 0.03 | 0.00 | 50 | 1008.8 |
| 20260901175021 | 22 | 125 | 25.7 | 40.2 | 0.00 | 0.03 | 0.00 | 49 | 1008.8 |
| 20260901174519 | 22 | 132 | 27.4 | 40.2 | 0.00 | 0.03 | 0.00 | 49 | 1008.8 |
| 20260901174018 | 22 | 104 | 25.7 | 40.2 | 0.00 | 0.03 | 0.00 | 48 | 1008.9 |
| 20260901173520 | 21 | 113 | 17.7 | 30.6 | 0.00 | 0.03 | 0.00 | 48 | 1009.0 |
| 20260901173015 | 22 | 115 | 20.9 | 33.8 | 0.00 | 0.03 | 0.00 | 49 | 1009.2 |
| 20260901172515 | 22 | 122 | 20.9 | 33.8 | 0.00 | 0.03 | 0.00 | 48 | 1009.1 |
| 20260901172012 | 21 | 133 | 24.1 | 30.6 | 0.00 | 0.03 | 0.00 | 47 | 1009.1 |
| 20260901171512 | 21 | 111 | 20.9 | 30.6 | 0.00 | 0.03 | 0.00 | 46 | 1009.2 |
| 20260901171009 | 21 | 92 | 17.7 | 25.7 | 0.00 | 0.03 | 0.00 | 44 | 1009.3 |
| 20260901170507 | 21 | 113 | 16.1 | 24.1 | 0.00 | 0.03 | 0.00 | 45 | 1009.3 |
| 20260901170007 | 20 | 132 | 16.1 | 30.6 | 0.00 | 0.03 | 0.00 | 46 | 1009.5 |
| 20260901165504 | 20 | 125 | 19.3 | 30.6 | 0.00 | 0.03 | 0.00 | 46 | 1009.7 |
| 20260901165005 | 20 | 137 | 17.7 | 30.6 | 0.00 | 0.03 | 0.00 | 44 | 1009.7 |
| 20260901164502 | 20 | 124 | 14.5 | 30.6 | 0.00 | 0.03 | 0.00 | 46 | 1009.7 |
| 20260901164100 | 21 | 165 | 11.3 | 25.7 | 0.00 | 0.03 | 0.00 | 46 | 1009.7 |
| 20260901163559 | 21 | 135 | 16.1 | 27.4 | 0.00 | 0.03 | 0.00 | 47 | 1009.7 |
| 20260901163057 | 21 | 117 | 16.1 | 27.4 | 0.00 | 0.03 | 0.00 | 47 | 1009.7 |
| 20260901162558 | 21 | 143 | 16.1 | 24.1 | 0.00 | 0.03 | 0.00 | 46 | 1009.8 |
| 20260901162053 | 21 | 154 | 17.7 | 27.4 | 0.00 | 0.03 | 0.00 | 45 | 1010.0 |
| 20260901161554 | 20 | 167 | 17.7 | 27.4 | 0.00 | 0.03 | 0.00 | 45 | 1010.0 |
| 20260901161050 | 20 | 154 | 17.7 | 27.4 | 0.00 | 0.03 | 0.00 | 45 | 1010.1 |
| 20260901160549 | 20 | 137 | 16.1 | 24.1 | 0.00 | 0.03 | 0.00 | 44 | 1010.2 |
| 20260901160048 | 20 | 144 | 16.1 | 24.1 | 0.00 | 0.03 | 0.00 | 41 | 1010.3 |
| 20260901155547 | 19 | 157 | 12.9 | 24.1 | 0.00 | 0.03 | 0.00 | 39 | 1010.4 |
| 20260901155045 | 19 | 185 | 14.5 | 24.1 | 0.00 | 0.03 | 0.00 | 36 | 1010.5 |
| 20260901154544 | 19 | 178 | 14.5 | 24.1 | 0.00 | 0.03 | 0.00 | 30 | 1010.6 |
| 20260901154042 | 19 | 191 | 14.5 | 24.1 | 0.00 | 0.03 | 0.00 | 26 | 1010.6 |
| 20260901153545 | 19 | 193 | 16.1 | 22.5 | 0.00 | 0.03 | 0.00 | 25 | 1010.6 |
| 20260901153042 | 18 | 191 | 12.9 | 20.9 | 0.00 | 0.03 | 0.00 | 13 | 1010.8 |
| 20260901152537 | 18 | 174 | 14.5 | 20.9 | 0.00 | 0.03 | 0.00 | 9 | 1010.8 |
| 20260901152036 | 18 | 153 | 14.5 | 20.9 | 0.00 | 0.03 | 0.00 | 2 | 1010.9 |
| 20260901151535 | 17 | 199 | 14.5 | 20.9 | 0.00 | 0.03 | 0.00 | 1 | 1010.9 |
| 20260901151035 | 17 | 209 | 14.5 | 20.9 | 0.00 | 0.03 | 0.00 | 1 | 1011.0 |
| 20260901150531 | 17 | 199 | 16.1 | 20.9 | 0.00 | 0.03 | 0.00 | 1 | 1011.0 |
| 20260901150031 | 17 | 176 | 14.5 | 20.9 | 0.00 | 0.03 | 0.00 | 1 | 1011.1 |
| 20260901145530 | 17 | 212 | 14.5 | 20.9 | 0.00 | 0.03 | 0.00 | 1 | 1011.1 |
| 20260901145028 | 16 | 185 | 12.9 | 22.5 | 0.00 | 0.03 | 0.00 | 1 | 1011.1 |
| 20260901144529 | 16 | 203 | 11.3 | 20.9 | 0.00 | 0.03 | 0.00 | 1 | 1011.1 |
| 20260901144024 | 16 | 199 | 14.5 | 20.9 | 0.00 | 0.03 | 0.00 | 1 | 1011.1 |
| 20260901143523 | 16 | 207 | 12.9 | 19.3 | 0.00 | 0.03 | 0.00 | 1 | 1011.1 |
| 20260901143022 | 16 | 197 | 14.5 | 19.3 | 0.00 | 0.03 | 0.00 | 1 | 1011.0 |
| 20260901142521 | 15 | 197 | 14.5 | 22.5 | 0.00 | 0.03 | 0.00 | 1 | 1011.1 |
| 20260901142018 | 15 | 195 | 17.7 | 22.5 | 0.00 | 0.03 | 0.00 | 1 | 1011.1 |
| 20260901141531 | 15 | 200 | 16.1 | 20.9 | 0.00 | 0.03 | 0.00 | 1 | 1011.1 |
| 20260901141016 | 15 | 202 | 14.5 | 19.3 | 0.00 | 0.03 | 0.00 | 1 | 1011.0 |
| 20260901140514 | 15 | 188 | 12.9 | 19.3 | 0.00 | 0.03 | 0.00 | 1 | 1011.0 |
| 20260901140012 | 14 | 200 | 12.9 | 19.3 | 0.00 | 0.03 | 0.00 | 1 | 1011.0 |
| 20260901135511 | 14 | 199 | 14.5 | 20.9 | 0.00 | 0.03 | 0.00 | 1 | 1011.0 |
| 20260901135010 | 13 | 208 | 12.9 | 19.3 | 0.00 | 0.03 | 0.00 | 1 | 1010.9 |
| 20260901134511 | 13 | 198 | 14.5 | 19.3 | 0.00 | 0.03 | 0.00 | 1 | 1010.8 |
| 20260901134012 | 12 | 193 | 14.5 | 17.7 | 0.00 | 0.03 | 0.00 | 1 | 1010.7 |
| 20260901133506 | 12 | 211 | 14.5 | 17.7 | 0.00 | 0.03 | 0.00 | 1 | 1010.7 |
| 20260901133005 | 12 | 206 | 14.5 | 17.7 | 0.00 | 0.03 | 0.00 | 1 | 1010.7 |
| 20260901132504 | 12 | 207 | 11.3 | 16.1 | 0.00 | 0.03 | 0.00 | 1 | 1010.7 |
| 20260901132004 | 11 | 204 | 9.7 | 12.9 | 0.00 | 0.03 | 0.00 | 1 | 1010.7 |
| 20260901131604 | 11 | 201 | 8.0 | 11.3 | 0.00 | 0.03 | 0.00 | 1 | 1010.7 |
| 20260901131058 | 11 | 215 | 8.0 | 12.9 | 0.00 | 0.03 | 0.00 | 1 | 1010.7 |
| 20260901130557 | 11 | 209 | 9.7 | 14.5 | 0.00 | 0.03 | 0.00 | 1 | 1010.6 |
| 20260901130055 | 11 | 209 | 9.7 | 14.5 | 0.00 | 0.03 | 0.00 | 1 | 1010.6 |
| 20260901125554 | 11 | 207 | 8.0 | 12.9 | 0.00 | 0.03 | 0.00 | 1 | 1010.5 |
| 20260901125053 | 11 | 207 | 9.7 | 12.9 | 0.00 | 0.03 | 0.00 | 1 | 1010.5 |
| 20260901124555 | 11 | 187 | 8.0 | 12.9 | 0.00 | 0.03 | 0.00 | 1 | 1010.5 |
| 20260901124052 | 11 | 194 | 9.7 | 14.5 | 0.00 | 0.03 | 0.00 | 1 | 1010.5 |
| 20260901123548 | 11 | 195 | 11.3 | 14.5 | 0.00 | 0.03 | 0.00 | 1 | 1010.5 |
| 20260901123046 | 12 | 209 | 9.7 | 16.1 | 0.00 | 0.03 | 0.00 | 1 | 1010.5 |
| 20260901122545 | 12 | 199 | 11.3 | 17.7 | 0.00 | 0.03 | 0.00 | 1 | 1010.5 |
| 20260901122047 | 12 | 205 | 12.9 | 16.1 | 0.00 | 0.03 | 0.00 | 1 | 1010.5 |
| 20260901121545 | 12 | 199 | 12.9 | 16.1 | 0.00 | 0.03 | 0.00 | 1 | 1010.5 |
| 20260901121040 | 12 | 194 | 11.3 | 16.1 | 0.00 | 0.03 | 0.00 | 1 | 1010.4 |